Regional Weather Roundup
Issued by NWS Mt. Holly, NJ

Home | Current Version | Previous Version | Text Only | Print | Product List | Glossary On
Versions: 1 2 3 4 5 6 7 8 9 10 11 12 13 14 15 16 17 18 19 20 21 22 23 24 25 26 27 28 29 30 31 32 33 34 35 36 37 38 39 40 41 42 43 44 45 46 47 48 49 50
000
ASUS41 KPHI 290310
RWRPHI

REGIONAL WEATHER ROUNDUP
NATIONAL WEATHER SERVICE MOUNT HOLLY NJ
1100 PM EDT MON JUL 28 2014

NOTE:  "FAIR" INDICATES FEW OR NO CLOUDS BELOW 12,000 FEET WITH NO
SIGNIFICANT WEATHER AND/OR OBSTRUCTIONS TO VISIBILITY.

 * = STATION DOES NOT REPORT PRECIPITATION (E.G. RAIN, SNOW, ETC.)
        OR FOG.

NJZ015>026-290400-
SOUTHERN NEW JERSEY

CITY           SKY/WX    TMP DP  RH WIND       PRES   REMARKS
POMONA         PTCLDY    69  60  73 NW8       29.73S
RIO GRANDE*    PTCLDY    73  59  60 NW12G18   29.75S
MILLVILLE      CLOUDY    69  62  78 NW9       29.75S
WRIGHTSTOWN    PTCLDY    69  60  74 NW10      29.72R
MOUNT HOLLY    MOCLDY    70  58  65 NW8       29.74R
TRENTON        PTCLDY    68  58  70 MISG      29.74R

$$
NJZ001>014-290400-
NORTHERN NEW JERSEY

CITY           SKY/WX    TMP DP  RH WIND       PRES   REMARKS
SUSSEX         CLOUDY    67  57  70 W7        29.73R
ANDOVER*         N/A     63  57  81 NW3       29.75R
MORRISTOWN     CLEAR     68  57  68 W9        29.72R
NEWARK         PTCLDY    69  58  67 W13G20    29.70R
TETERBORO      CLEAR     71  57  61 NW10G18   29.68R
CALDWELL       CLEAR     68  56  65 NW9G18    29.71R
SOMERVILLE     CLEAR     68  57  68 NW5       29.72R
ALLAIRE*       CLEAR     70  57  64 W10G16    29.71S
TOMS RIVER*    MOCLDY    70  59  68 NW7       29.73R

$$
PAZ043-044-047-054-055-060>062-066>071-290400-
EASTERN PENNSYLVANIA

CITY           SKY/WX    TMP DP  RH WIND       PRES   REMARKS
PHILADELPHIA   MOCLDY    72  59  63 NW10      29.76R
NORTH PHILA    MOCLDY    70  58  65 NW9       29.77R
BLUE BELL      PTCLDY    68  63  83 CALM      29.76R
DOYLESTOWN     PTCLDY    65  58  78 NW8       29.76R
QUAKERTOWN*    PTCLDY    64  59  82 CALM      29.78R
POTTSTOWN      MOCLDY    66  59  78 NW7       29.79R
LANCASTER      CLOUDY    64  62  93 NW6       29.80R
COATESVILLE    MOCLDY    64  64 100 NW9       29.80R
READING        PTCLDY    67  57  70 NW10      29.79R
ALLENTOWN      CLOUDY    67  55  65 NW13G23   29.77R
MOUNT POCONO   CLOUDY    58  54  86 NW14      29.80R
HAZLETON       CLOUDY    61  54  77 NW7       29.85R
WILKES BARRE   CLOUDY    62  55  77 NW12      29.81R

$$
DEZALL-MDZ008-012-015-019-020-290400-
DELAWARE AND EASTERN MARYLAND

CITY           SKY/WX    TMP DP  RH WIND       PRES   REMARKS
WILMINGTON     PTCLDY    68  63  84 W8        29.78R
DOVER          PTCLDY    70  61  73 NW9       29.75R
GEORGETOWN     CLEAR     74  59  59 VRB7      29.75F
EASTON         MOCLDY    74  62  66 N15G23    29.82R
PATUXENT       PTCLDY    74  58  57 NW16G23   29.80R
OCEAN CITY     CLEAR     73  59  61 W5        29.74F
WALLOPS ISLAND CLEAR     77  60  55 NW13G18   29.76F
CAMBRIDGE      PTCLDY    77  59  53 NW14G20   29.78S

$$
PAZ001-021-NYZ056-072-MDZ011-DCZ001-290400-
OTHER NEARBY LOCATIONS

CITY           SKY/WX    TMP DP  RH WIND       PRES   REMARKS
HARRISBURG     MOCLDY    67  60  78 NW9       29.81R
STATE COLLEGE  CLOUDY    61  55  80 NW5       29.87S
WILLIAMSPORT   CLOUDY    65  53  65 W8        29.82R
BINGHAMTON     CLOUDY    56  54  93 NW7       29.81R
NEW YORK CITY  CLEAR     70  57  63 W9        29.72R
BALTIMORE      MOCLDY    70  60  70 NW10      29.81R
WASHINGTON DC  PTCLDY    74  58  57 NW13G23   29.83R

$$



USA.gov is the U.S. government's official web portal to all federal, state and local government web resources and services.